Location: Newark
(30.1000°N, 109.4667°E)
Time: 07:14:52
(UTC+00:00)

A-11 Canister half - Pass Details

Date: 25 February 2020
Orbit: 1517 x 1683 km, 47.2° (Epoch: 04 April)

Event Time Altitude Azimuth Distance (km) Brightness Sun altitude
Rises 10:51:04 0° 294° (WNW) 4,885 12.7 -3.7°
Reaches altitude 10° 10:54:57 10° 306° (NW) 3,874 11.9 -4.5°
Maximum altitude 11:03:05 28° 2° (N) 2,668 10.2 -6.3°
Drops below altitude 10° 11:11:00 10° 58° (ENE) 3,763 10.5 -8.0°
Enters shadow 11:12:18 - 63° (ENE) 4,084 10.6 -8.3°
